Regional Weather Roundup
Issued by NWS Upton, NY

Current Version | Previous Version | Text Only | Print | Product List | Glossary On
Versions: 1 2 3 4 5 6 7 8 9 10 11 12 13 14 15 16 17 18 19 20 21 22 23 24 25 26 27 28 29 30 31 32 33 34 35 36 37 38 39 40 41 42 43 44 45 46 47 48 49 50
000 ASUS41 KOKX 230209 RWROKX Regional Weather Roundup National Weather Service New York NY 900 PM EST MON JAN 22 2018 Note: "FAIR" indicates few or no clouds below 12,000 feet with no significant weather and/or obstructions to visibility. NYZ071-072-176-178-NJZ106-104-230300- New York City Metro Area CITY SKY/WX TMP DP RH WIND PRES REMARKS Central Park CLOUDY 39 37 92 E6 30.14F FOG WCI 35 Bronx Bot Gard NOT AVBL Bronx Lehman C N/A 37 36 93 E12 N/A WCI 30 LaGuardia Arpt CLOUDY 37 34 89 NE13 30.12F FOG WCI 29 Queens College N/A 39 37 93 NE8 N/A WCI 34 Kennedy Intl CLOUDY 42 39 89 N8 30.13F Breezy Point N/A 41 N/A N/A E10 N/A Brooklyn Coll N/A 43 39 87 NE3 N/A Staten Island N/A 41 37 87 NE3 N/A Newark/Liberty CLOUDY 41 38 89 NE10 30.11F FOG Teterboro CLOUDY 40 37 89 E6 30.11F FOG $$ NYZ177-179-078>081-230300- Long Island New York CITY SKY/WX TMP DP RH WIND PRES REMARKS Jones Beach N/A 37 N/A N/A E15 N/A WCI 28 Wantagh N/A 43 41 93 NE6 N/A Matinecock Pt N/A 36 N/A N/A E20 N/A WCI 25 Farmingdale CLOUDY 42 41 96 E5 30.13F FOG MacArthur/ISP FOG 43 41 93 NE6 30.13F VSB 1/4 Shirley CLOUDY 41 41 100 CALM 30.15F FOG Mt Sinai Harb N/A N/A N/A N/A E3 N/A Westhampton CLOUDY 43 41 93 E5 30.16F FOG East Hampton CLOUDY 41 40 97 E3 30.15F FOG Southold N/A 37 37 100 E9 N/A WCI 31 Montauk N/A 42 41 96 E6 30.17F $$ NYZ052-065-067-230300- Hudson Valley CITY SKY/WX TMP DP RH WIND PRES REMARKS White Plains FOG 38 37 97 E9G20 30.11F VSB 1/4 WCI 31 Larchmont Harb N/A 36 N/A N/A NE21 N/A WCI 24 Croton On Huds N/A 41 N/A N/A E5 N/A Somers N/A 39 39 100 E9 N/A WCI 33 Brewster N/A 37 37 100 E2 N/A Newburgh LGT RAIN 39 39 100 SE8 30.11F FOG WCI 34 Montgomery CLOUDY 37 36 96 N8 30.08F FOG WCI 31 Otisville N/A 36 36 100 N1 N/A Warwick N/A 41 39 93 E6 N/A Suffern N/A 39 37 93 E3 N/A Poughkeepsie CLOUDY 37 34 89 CALM 30.11F FOG Albany CLOUDY 38 34 85 S14 30.09F WCI 30 $$ NJZ001-105-106-008-010-013-015-019>022-104-230300- New Jersey CITY SKY/WX TMP DP RH WIND PRES REMARKS Newark/Liberty CLOUDY 41 38 89 NE10 30.11F FOG Teterboro CLOUDY 40 37 89 E6 30.11F FOG Caldwell CLOUDY 40 39 97 E8 30.11F FOG WCI 34 Somerville FAIR 41 39 93 NE3 30.07F FOG Linden FAIR 42 38 85 E10 30.11F Perth Amboy N/A 39 N/A N/A SE9 N/A WCI 33 Sussex CLOUDY 38 36 92 CALM 30.08F FOG Andover N/A 40 39 97 CALM 30.06F Trenton FAIR 43 38 82 E7 30.07F Millville FAIR 50 39 66 VRB6 30.06F Atlantic City FAIR 48 37 65 S7 30.08F Wrightstown FAIR 41 37 87 E3 30.04F Toms River FAIR 35 33 92 CALM 30.09F Belmar FAIR 41 39 93 NE6 30.10F $$ PAZ047>061-062-071-230300- Eastern Pennsylvania CITY SKY/WX TMP DP RH WIND PRES REMARKS Philadelphia CLOUDY 47 39 74 E8 30.04F Allentown FAIR 43 36 76 NE8 30.04F Scranton FAIR 47 40 76 NE7 29.97F $$ CTZ002-004>006-009-010-012-RIZ004-006-007-MAZ004-011-015-230300- Southern New England In CT CITY SKY/WX TMP DP RH WIND PRES REMARKS Bradley Intl CLOUDY 36 35 96 N7 30.19F FOG WCI 30 Hartford CLOUDY 38 37 97 N5 30.19F FOG WCI 34 Danbury FOG 39 38 96 E6 30.14F VSB 1 WCI 35 Wtrbury/Oxford LGT RAIN 37 37 100 E7 30.14F VSB 1/4 WCI 32 Norwalk Harbor N/A 36 N/A N/A NE21 N/A WCI 24 Bridgeport CLOUDY 39 36 89 E12 30.16F FOG WCI 32 Meriden CLOUDY 39 37 92 CALM 30.18F FOG New Haven CLOUDY 42 38 85 E6 30.16F Chester CLOUDY 39 37 93 E6 30.16F FOG WCI 35 Groton CLOUDY 41 39 93 E12 30.17F Willimantic CLOUDY 38 36 92 NE6 30.19F FOG WCI 33 In RI CITY SKY/WX TMP DP RH WIND PRES REMARKS Providence DRIZZLE 38 38 100 NE5 30.21F FOG WCI 34 Block Island CLOUDY 40 40 100 E9 30.18F WCI 34 Westerly CLOUDY 41 40 96 E12 30.19F In MA CITY SKY/WX TMP DP RH WIND PRES REMARKS Boston LGT RAIN 38 38 100 NE5 30.22F FOG WCI 34 Worcester FRZ RAIN 31 29 92 NE7 30.17F VSB 1/2 WCI 24 Westfield CLOUDY 35 34 96 N6 30.19F WCI 30 Provincetown CLOUDY 41 38 89 E6 30.22F Nantucket CLOUDY 41 41 100 E17 30.21F $$ ANZ330-335-338-340-345-350-353-355-230300- Coastal Marine Observations STATION/POSITION TIME SKY/WX TEMP WIND PRES VSBY WAVE AIR SEA DIR/SP/G HT/PER (UTC) (F) (DEG/KT/KT) (MB) (MI) (FT/S) NY Harb Entrance 0050 40 40 60/ 12/ 14 1019.6 1/10 20 S Fire Island 0150 45 42 110/ 6/ 6 1019.9 2/ 7 15 E Barnegat Li 0130 43 N/A 2/ 4 Hudson Canyon 0050 51 49 150/ 6/ 8 1020.5 2/10 Kings Point 0142 36 34 60/ 5/ 6 1021.4 Execution Rocks NOT AVBL Western LI Sound NOT AVBL Central LI Sound 0100 38 80/ 16/ 19 N/A 2 Robbins Reef 0142 40 50/ 12/ 13 1020.5 $$ >>>>>>>>>>>>>>>>>>>>>>>>>>>> KEY <<<<<<<<<<<<<<<<<<<<<<<<<<< > < > SKY/WX - Sky Condition/Present Weather < > TMP - Temperature in Fahrenheit < > DP - Dew Point in Fahrenheit < > RH - Relative Humidity in Percent < > WIND - Direction (from) and Speed in MPH < > PRES - Mean Sea Level Pressure (inches of Hg) < > WCI - Wind Chill Index < > VSB - Visibility in Miles < > HX - Heat Index < > TC - Temperature in Celsius < > VRB - Varibale Wind Direction < > < >>>>>>>>>>>>>>>>>>>>>>>>>>>> KEY <<<<<<<<<<<<<<<<<<<<<<<<<<<

USA.gov is the U.S. government's official web portal to all federal, state and local government web resources and services.